Tracking 18851 objects as of 25-Nov-2017
HD Live streaming from Space Station
objects crossing your sky now

FENGYUN 1C DEB

Track FENGYUN 1C DEB now!
10-day predictions


NORAD ID: 31088
Int'l Code: 1999-025BGJ
Perigee: 832.8 km
Apogee: 886.3 km
Inclination: 99.5 °
Period: 102.0 minutes
Semi major axis: 7230 km
RCS: 0.009 m2 (small)
Launch date: May 10, 1999
Source: People's Republic of China (PRC)
Launch site: Taiyaun Space Center, China (TSC)

Note: This is SATELLITE DEBRIS
aabbcc
Your satellite tracking list
Your tracking list is empty




NASA's NSSDC Master Catalog

Two Line Element Set (TLE):
1 31088U 99025BGJ 17328.02383341 +.00000958 +00000-0 +54640-3 0  9994
2 31088 099.4517 174.2623 0037000 019.9263 140.2827 14.12025147549146
Source of the keplerian elements: AFSPC